Regional Weather Roundup
Issued by NWS

Home | Current Version | Previous Version | Graphics & Text | Print | Product List | Glossary On
Versions: 1 2 3 4 5 6 7 8 9 10 11 12 13 14 15 16 17 18 19 20 21 22 23 24 25 26 27 28 29 30 31 32 33 34 35 36 37 38 39 40 41 42 43 44 45 46 47 48 49 50
000
ASUS43 KOAX 230610
RWRNE

WEATHER ROUNDUP FOR NEBRASKA
NATIONAL WEATHER SERVICE OMAHA NE
100 AM CDT SUN APR 23 2017

NOTES: SATELLITE DATA IS BEING USED TO AUGMENT CLOUD COVER ABOVE
       12000 FEET.
       "FAIR" INDICATES FEW OR NO CLOUDS BELOW 12,000 FEET WITH NO
       SIGNIFICANT WEATHER AND/OR OBSTRUCTIONS TO VISIBILITY.

  * THESE STATIONS DO NOT REPORT WEATHER SUCH AS RAIN...SNOW OR FOG.

NEZ001>004-019>022-054>056-230700-
NEBRASKA PANHANDLE

CITY           SKY/WX    TMP DP  RH WIND       PRES   REMARKS
SCOTTSBLUFF    CLOUDY    45  30  55 S9        30.11F
6HR MIN TEMP:  44; 6HR MAX TEMP:  62;

ALLIANCE       CLEAR     40  28  62 S10       30.12F WCI  33
6HR MIN TEMP:  40; 6HR MAX TEMP:  60;

CHADRON        CLEAR     49  32  52 S13       30.08S
6HR MIN TEMP:  48; 6HR MAX TEMP:  64;

KIMBALL        CLEAR     39  33  80 S12       30.16F WCI  32
SIDNEY         CLEAR     36  31  82 S9        30.17F WCI  29
6HR MIN TEMP:  35; 6HR MAX TEMP:  56;

$$

NEZ057>060-069>072-079>082-230700-
SOUTHWEST NEBRASKA

CITY           SKY/WX    TMP DP  RH WIND       PRES   REMARKS
NORTH PLATTE   CLEAR     44  29  55 S9        30.19F
6HR MIN TEMP:  39; 6HR MAX TEMP:  63;

IMPERIAL       CLEAR     42  32  67 S12       30.20F
6HR MIN TEMP:  41; 6HR MAX TEMP:  59;

LEXINGTON      CLEAR     46  28  49 S3        30.21S
MCCOOK         CLEAR     41  29  62 SW6       30.21F
6HR MIN TEMP:  39; 6HR MAX TEMP:  63;

OGALLALA       CLEAR     44  30  58 S10       30.18S
$$

NEZ005>010-023>029-035>040-094-230700-
NORTH CENTRAL NEBRASKA

CITY           SKY/WX    TMP DP  RH WIND       PRES   REMARKS
VALENTINE      CLEAR     50  27  40 SW13      30.12R
6HR MIN TEMP:  47; 6HR MAX TEMP:  67;

AINSWORTH      CLEAR     46  33  60 S12       30.14S
BROKEN BOW     CLEAR     34  27  75 CALM      30.19S
6HR MIN TEMP:  33; 6HR MAX TEMP:  63;

O`NEILL        CLEAR     46  33  59 S7        30.16F
ORD            CLEAR     42  30  62 S3        30.18F
6HR MIN TEMP:  41; 6HR MAX TEMP:  64;

THEDFORD       CLEAR     47  28  48 S10       30.16F
$$

NEZ041-046>049-061>064-073>077-083>087-230700-
SOUTH CENTRAL NEBRASKA

CITY           SKY/WX    TMP DP  RH WIND       PRES   REMARKS
GRAND ISLAND   CLEAR     47  31  53 S5        30.21F
6HR MIN TEMP:  44; 6HR MAX TEMP:  64;

AURORA         CLEAR     43  28  54 S3        30.21S
HASTINGS       CLEAR     43  30  60 CALM      30.23R
6HR MIN TEMP:  42; 6HR MAX TEMP:  64;

HEBRON         CLEAR     38  32  78 CALM      30.22F
HOLDREGE       CLEAR     46  26  45 S6        30.22R
KEARNEY *      CLEAR     48  27  43 NE5       30.22S
YORK           CLEAR     45  30  57 S3        30.22S
$$

NEZ011>018-030>034-042>045-230700-
NORTHEAST NEBRASKA

CITY           SKY/WX    TMP DP  RH WIND       PRES   REMARKS
NORFOLK        CLEAR     40  32  73 CALM      30.18F
6HR MIN TEMP:  40; 6HR MAX TEMP:  64;

ALBION         CLEAR     42  34  72 CALM      30.19F
BLAIR          CLEAR     52  32  47 SW3       30.20R
FREMONT        CLEAR     45  40  82 CALM      30.20S
TEKAMAH        CLEAR     44  39  82 SW3       30.19S
6HR MIN TEMP:  44; 6HR MAX TEMP:  66;

WAYNE          CLEAR     38  35  89 SW5       30.18F WCI  34
$$

NEZ050>053-065>068-078-088>093-230700-
SOUTHEAST NEBRASKA

CITY           SKY/WX    TMP DP  RH WIND       PRES   REMARKS
LINCOLN        CLEAR     39  34  82 N3        30.22S
6HR MIN TEMP:  39; 6HR MAX TEMP:  65;

OMAHA EPPLEY   CLEAR     47  35  63 CALM      30.19S
6HR MIN TEMP:  46; 6HR MAX TEMP:  67;

BEATRICE       CLEAR     40  33  77 CALM      30.21S
FALLS CITY     CLEAR     44  33  65 CALM      30.19F
6HR MIN TEMP:  44; 6HR MAX TEMP:  63;

NEBRASKA CITY  CLEAR     56  18  22 CALM      30.19S
PLATTSMOUTH    CLEAR     53  25  33 CALM      30.20R
$$

NEZ044-045-051>053-067-230700-
OMAHA AREA

CITY           SKY/WX    TMP DP  RH WIND       PRES   REMARKS
OMAHA EPPLEY   CLEAR     47  35  63 CALM      30.19S
6HR MIN TEMP:  46; 6HR MAX TEMP:  67;

BLAIR          CLEAR     52  32  47 SW3       30.20R
FREMONT        CLEAR     45  40  82 CALM      30.20S
MILLARD        CLEAR     46  39  76 CALM      30.20S
OFFUTT AFB     CLEAR     38  34  85 CALM      30.19S
PLATTSMOUTH    CLEAR     53  25  33 CALM      30.20R
WAHOO          FAIR      45  37  73 CALM      30.21R
$$



USA.gov is the U.S. government's official web portal to all federal, state and local government web resources and services.